Regional Weather Roundup
Issued by NWS Kansas City/Pleasant Hill, MO

Home | Current Version | Previous Version | Text Only | Print | Product List | Glossary On
Versions: 1 2 3 4 5 6 7 8 9 10 11 12 13 14 15 16 17 18 19 20 21 22 23 24 25 26 27 28 29 30 31 32 33 34 35 36 37 38 39 40 41 42 43 44 45 46 47 48 49 50
370
ASUS43 KEAX 261510
RWREAX

WEATHER ROUNDUP FOR EASTERN KANSAS AND NORTHWEST MISSOURI
NATIONAL WEATHER SERVICE KANSAS CITY/PLEASANT HILL MO
900 AM CST SUN FEB 26 2017

KSZ040-057-103>105-MOZ028-029-037-043-261600-
...KANSAS CITY METROPOLITAN AREA...

CITY           SKY/WX    TMP DP  RH WIND       PRES   REMARKS
K.C. INTL      DRIZZLE   37  32  82 S10       30.03R WCI  30
K.C. DOWNTOWN  FLURRIES  36  33  89 SW3       30.05S
LEES SUMMIT    CLOUDY    34  33  96 N3        30.04F
OLATHE - IXD   CLOUDY    37  29  72 CALM      30.03S
OLATHE - OJC   CLOUDY    35  33  92 N3        30.03S
LAWRENCE       CLOUDY    34  33  96 CALM      30.04R

$$

MOZ001>008-011>017-020>025-030>033-038>040-044>046-053-054-261600-
...NORTHERN AND CENTRAL MISSOURI...

CITY           SKY/WX    TMP DP  RH WIND       PRES   REMARKS
ST. JOSEPH     PTSUNNY   37  25  61 SW10      30.03R WCI  30
MOSBY          DRIZZLE   37  32  81 SW13      30.05S WCI  29
WARRENSBURG    CLOUDY    37  28  70 NW5       30.05F WCI  34
WHITEMAN AFB   CLOUDY    39  23  53 W6        30.05R WCI  34
CLINTON        CLOUDY    37  21  52 S7        30.07R WCI  32
SEDALIA        CLOUDY    39  18  42 SW9       30.07R WCI  33
WARSAW         NOT AVBL
CHILLICOTHE      N/A     38  18  44 SW6       30.04R WCI  33
KIRKSVILLE     CLOUDY    36  17  46 SW10      30.02R WCI  28

$$

MOZ041-047>049-056>058-063>065-088>090-097-261600-
...EASTERN AND SOUTHERN MISSOURI...

CITY           SKY/WX    TMP DP  RH WIND       PRES   REMARKS
ST. LOUIS INTL CLOUDY    38  13  35 S13       30.12S WCI  30
SPIRIT OF STL  CLOUDY    36  13  38 S9        30.12S WCI  29
COLUMBIA       CLOUDY    36  16  44 S9        30.07R WCI  29
JEFFERSON CITY CLOUDY    37  15  40 S7        30.09R WCI  32
ROLLA          CLOUDY    36  13  38 S16       30.08R WCI  26
OSAGE BEACH    CLOUDY    37  17  44 S8        30.10R WCI  31
SPRINGFIELD    CLOUDY    38  17  42 SE15      30.06R WCI  29
BRANSON        PTSUNNY   34  18  51 SE10      30.09S WCI  26
JOPLIN         LGT RAIN  40  22  48 S8        30.06R WCI  34
WEST PLAINS    CLOUDY    38  19  46 S9        30.14R WCI  31

$$

IAZ060-094-KSZ022-034>040-054-083-096-NEZ052-066-093-261600-
...KANSAS...SOUTHEAST NEBRASKA AND IOWA...

CITY           SKY/WX    TMP DP  RH WIND       PRES   REMARKS
TOPEKA         CLOUDY    36  32  85 SE7       30.03R WCI  30
MANHATTAN      PTSUNNY   37  33  85 E3        30.00R
EMPORIA        CLOUDY    34  32  92 E9        29.98S WCI  27
CHANUTE        CLOUDY    40  21  46 SE13      30.01S WCI  32
WICHITA        PTSUNNY   37  22  54 S9        29.95R WCI  30
OMAHA          MOSUNNY   36  18  48 W12       29.92R WCI  28
LINCOLN        SUNNY     34  20  56 W9        29.95R WCI  27
FALLS CITY     CLOUDY    38  28  67 SW15G24   29.97R WCI  29
LAMONI         SUNNY     38  21  50 SW17G25   29.94R WCI  28
DES MOINES     MOSUNNY   35  24  64 SW9       29.91R WCI  28

$$





USA.gov is the U.S. government's official web portal to all federal, state and local government web resources and services.